Weather Roundup
Issued by NWS

Home | Current Version | Previous Version | Text Only | Print | Product List | Glossary On
Versions: 1 2 3 4 5 6 7 8 9 10 11 12 13 14 15 16 17 18 19 20 21 22 23 24 25 26 27 28 29 30 31 32 33 34 35 36 37 38 39 40 41 42 43 44 45 46 47 48 49 50
000
NZUS93 KARX 290610
HRRWXR

CURRENT HOURLY OBSERVATIONS ACROSS
MUCH OF THE UPPER MISSISSIPPI VALLEY
NATIONAL WEATHER SERVICE LA CROSSE WI
100 AM CDT FRI MAY 29 2015


...SOUTHEAST MINNESOTA...


CITY           SKY/WX    TMP DP  RH WIND       PRES   REMARKS
ROCHESTER      LGT RAIN  66  57  72 S8        29.97S
ROCHESTER/MAYO CLOUDY    68  55  63 SE6       29.96F
WINONA         DRIZZLE   70  55  60 SE5       29.97S
AUSTIN         CLOUDY    66  57  72 S3        29.95S
ALBERT LEA     CLOUDY    70  61  73 S7        29.94S
DODGE CENTER   CLOUDY    66  57  72 S7        29.95F
PRESTON        CLOUDY    65  55  72 S7        29.98S
OWATONNA       CLOUDY    70  57  64 S5        29.94F
FARIBAULT      CLOUDY    70  61  73 S3        29.93F
$$

...ELSEWHERE IN MINNESOTA...


CITY           SKY/WX    TMP DP  RH WIND       PRES   REMARKS
MINNEAPOLIS    CLOUDY    72  57  59 S8        29.91F
INTNL FALLS    CLOUDY    59  57  93 CALM      29.84S
DULUTH         CLOUDY    46  42  86 SE3       29.90F
RED WING       RAIN      66  59  77 E5        29.94S
REDWOOD FALLS  MOCLDY    66  60  81 S8        29.88F
MANKATO        CLOUDY    70  61  73 S9        29.92F
WORTHINGTON    MOCLDY    64  59  82 S10       29.91S
FAIRMONT       CLOUDY    66  59  77 S9        29.91F
$$

...SOUTHWEST WISCONSIN...


CITY           SKY/WX    TMP DP  RH WIND       PRES   REMARKS
LA CROSSE      LGT RAIN  70  59  68 S3        29.97S
PRAIRIE DU CHI DRIZZLE   67  54  62 CALM      30.00S
BOSCOBEL       LGT RAIN  62  58  86 CALM      30.00F
LONE ROCK      CLOUDY    65  57  75 E7        30.01F
PLATTEVILLE    CLOUDY    67  55  65 SE6       30.02S
FORT MC COY    LGT RAIN  64  56  77 CALM      30.00F
VIROQUA        FAIR      67  53  61 SE6       30.01F
WIS DELLS      CLOUDY    67  55  64 SE8       30.03S
$$

...ELSEWHERE IN WISCONSIN...


CITY           SKY/WX    TMP DP  RH WIND       PRES   REMARKS
MILWAUKEE      CLOUDY    61  53  75 SE3       30.07F
MADISON        CLOUDY    68  54  60 SE7       30.03S
GREEN BAY      CLOUDY    66  55  67 S5        30.06S
EAU CLAIRE     LGT RAIN  67  57  70 S6        29.98R
BLACK RVR FLS  CLOUDY    62  60  94 CALM      29.99S
MEDFORD        CLOUDY    62  54  76 SE3       30.02F
WAUSAU         CLOUDY    64  55  72 SE7       30.02F
WIS RAPIDS     CLOUDY    67  54  63 S3        30.03F
MARSHFIELD     CLOUDY    66  54  65 SE5       30.01F
RICE LAKE      CLOUDY    66  55  66 SE8       29.97F
$$

...NORTHEAST IOWA...


CITY           SKY/WX    TMP DP  RH WIND       PRES   REMARKS
DECORAH        CLOUDY    64  57  77 S7        29.98S
MASON CITY     CLOUDY    67  61  81 S8        29.96S
CHARLES CITY   CLOUDY    66  64  94 S13       29.97S
OELWEIN        CLOUDY    64  63  94 S9        30.00S
$$

...ELSEWHERE IN IOWA...


CITY           SKY/WX    TMP DP  RH WIND       PRES   REMARKS
DES MOINES     MOCLDY    65  62  90 S7        29.96S
IOWA CITY      CLOUDY    66  63  90 SE5       30.01S
FORT DODGE     CLOUDY    66  63  88 S10       29.95S
$$

...NORTHERN ILLINOIS...


CITY           SKY/WX    TMP DP  RH WIND       PRES   REMARKS
CHICAGO-OHARE  MOCLDY    65  55  70 SE5       30.05S
CHICAGO-MIDWAY MOCLDY    71  58  63 SE7       30.06R
MOLINE         CLOUDY    66  61  84 E3        30.01S
ROCKFORD       CLOUDY    68  55  63 SE9       30.04F
PEORIA         MOCLDY    72  62  71 SE5       30.03F
$$

NOTE: "FAIR" INDICATES FEW OR NO CLOUDS BELOW 12,000 FEET WITH NO
SIGNIFICANT WEATHER AND/OR OBSTRUCTIONS TO VISIBILITY. WIND
SPEEDS ARE IN MILES-PER-HOUR.



USA.gov is the U.S. government's official web portal to all federal, state and local government web resources and services.